Flag for U.S.A. Weather past 2 weeks in Racine, Wisconsin, U.S.A.

Now
66 °F

Partly cloudy.


Feels Like: 66 °F
Forecast: 62 / 74 °F
Wind: 13 mph from West

Location: Batten International Airport

Current Time: Sep 20, 2014 at 5:57:08 AM

Latest Report: Sep 20, 2014 at 4:53 AM


Visibility: 10 mi

Pressure: 29.90 "Hg

Humidity: 68%

Dew point: 55 °F

Location of RacineLocation

Historic Weather in Racine — Graph

°F

Racine temperature yesterday

Maximum temperature yesterday: 69 °F (at 12:53 PM)
Minimum temperature yesterday: 51 °F (at 1:55 AM)
Average temperature yesterday: 63 °F

Past Weeks' High & Low Weather Summary

 TemperatureHumidityPressure
High83 °F (Sep 5, 10:53 AM)96% (Sep 19, 1:55 AM)30.38 "Hg (Sep 19, 1:55 AM)
Low40 °F (Sep 13, 4:53 AM)43% (Sep 7, 11:53 AM)29.49 "Hg (Sep 10, 12:53 PM)
Average59 °F74%30.11 "Hg
* Reported Sep 5 3:53 AM — Sep 20 3:53 AM, Racine, Weather by CustomWeather, © 2014

Note: Actual official high and low records may vary slightly from our data, if they occured in-between our weather recording intervals... More about our weather records

Advertising

Racine weather history for previous 24 hours

 ConditionsComfort  
Time TempWeatherWind HumidityBarometerVisibility
3:53 AM
Sep 20
66 °FClear.12 mph65%29.87 "Hg10 mi
2:53 AM65 °FClear.17 mph63%29.85 "Hg10 mi
1:53 AM65 °FClear.13 mph59%29.88 "Hg10 mi
12:53 AM64 °FClear.12 mph56%29.88 "Hg10 mi
11:53 PM
Sep 19
65 °FClear.15 mph52%29.90 "Hg10 mi
10:53 PM65 °FClear.9 mph52%29.92 "Hg10 mi
9:53 PM67 °FClear.12 mph47%29.93 "Hg10 mi
8:53 PM66 °FClear.12 mph50%29.93 "Hg10 mi
7:53 PM63 °FSunny.9 mph65%29.96 "Hg10 mi
6:53 PM64 °FSunny.8 mph65%29.98 "Hg10 mi
5:53 PM66 °FSunny.12 mph61%29.99 "Hg10 mi
4:53 PM67 °FSunny.16 mph59%29.99 "Hg10 mi
3:53 PM69 °FSunny.16 mph55%30.01 "Hg10 mi
2:53 PM69 °FSunny.21 mph55%30.04 "Hg10 mi
1:53 PM69 °FSunny.14 mph59%30.08 "Hg10 mi
12:53 PM69 °FSunny.14 mph59%30.11 "Hg10 mi
11:53 AM67 °FSunny.13 mph66%30.13 "Hg10 mi
10:53 AM65 °FSunny.12 mph70%30.13 "Hg10 mi
9:53 AM63 °FSunny.14 mph73%30.16 "Hg10 mi
8:53 AM62 °FSunny.12 mph78%30.17 "Hg10 mi
7:53 AM60 °FSunny.9 mph80%30.17 "Hg10 mi
6:53 AM58 °FClear.7 mph87%30.17 "Hg10 mi
5:53 AM58 °FClear.7 mph87%30.16 "Hg10 mi
Weather by CustomWeather, © 2014

See weather overviewHow to use our weather pages